EW7812 Weather Reports


Display with metric or nautical units.
time (UTC)temp
F
wind
direction
speed
MPH
gust
MPH
rain 1hr
in
rain 24hr
in
rain mn
in
humidity
%
barometer
mb
20260505004012 51 184 4.0 0.0 0.00 0.00 0.01 63 1005.4
20260505003512 51 252 0.0 0.0 0.00 0.00 0.01 63 1005.4
20260505003014 51 250 1.0 0.0 0.00 0.00 0.01 64 1005.4
20260505002514 50 251 1.0 0.0 0.00 0.00 0.01 63 1005.4
20260505002013 50 251 0.0 0.0 0.00 0.00 0.01 62 1005.4
20260505001514 50 219 3.0 0.0 0.00 0.00 0.01 63 1005.4
20260505001012 50 203 2.0 0.0 0.00 0.00 0.01 63 1005.4
20260505000513 50 217 6.0 0.0 0.00 0.00 0.01 61 1005.4
20260505000016 50 184 7.0 0.0 0.00 0.00 0.01 60 1005.4
20260504235517 51 310 2.0 0.0 0.00 0.00 0.01 59 1005.1
20260504235011 51 302 3.0 0.0 0.00 0.00 0.00 56 1005.4
20260504234513 51 246 0.0 0.0 0.00 0.00 0.00 55 1005.1
20260504234012 51 245 1.0 0.0 0.00 0.00 0.00 55 1005.1
20260504233513 52 167 2.0 0.0 0.00 0.00 0.00 55 1004.7
20260504233018 52 42 1.0 0.0 0.00 0.00 0.00 56 1004.7
20260504232516 52 42 0.0 0.0 0.00 0.00 0.00 56 1004.7
20260504232017 51 180 0.0 0.0 0.00 0.00 0.00 56 1004.7
20260504231514 51 24 3.0 0.0 0.00 0.00 0.00 55 1004.7
20260504231011 51 46 3.0 0.0 0.00 0.00 0.00 54 1004.7
20260504230513 51 26 1.0 0.0 0.00 0.00 0.00 55 1005.1
20260504230016 52 360 4.0 0.0 0.00 0.00 0.00 54 1004.7
20260504225512 52 64 4.0 0.0 0.00 0.00 0.00 54 1004.4
20260504225015 52 188 3.0 0.0 0.00 0.00 0.00 54 1004.4
20260504224514 52 330 1.0 0.0 0.00 0.00 0.00 53 1004.4
20260504224012 53 52 3.0 0.0 0.00 0.00 0.00 53 1004.4
20260504223512 53 313 3.0 0.0 0.00 0.00 0.00 50 1004.4
20260504223014 53 35 9.0 0.0 0.00 0.00 0.00 50 1004.4
20260504222514 53 149 12.0 0.0 0.00 0.00 0.00 50 1004.1
20260504222011 53 11 0.0 0.0 0.00 0.00 0.00 50 1004.4
20260504221514 53 333 3.0 0.0 0.00 0.00 0.00 49 1004.4
20260504221012 53 86 5.0 0.0 0.00 0.00 0.00 51 1004.1
20260504220510 54 112 5.0 0.0 0.00 0.00 0.00 49 1003.4
20260504220014 56 147 5.0 0.0 0.00 0.00 0.00 44 1003.0
20260504215512 57 123 7.0 0.0 0.00 0.00 0.00 41 1002.4
20260504215014 58 155 10.0 0.0 0.00 0.00 0.00 39 1002.0
20260504214510 59 117 5.0 0.0 0.00 0.00 0.00 37 1001.4
20260504214012 59 181 4.0 0.0 0.00 0.00 0.00 37 1001.4
20260504213514 60 123 9.0 0.0 0.00 0.00 0.00 35 1001.4
20260504213012 61 103 2.0 0.0 0.00 0.00 0.00 34 1000.3
20260504212614 61 237 3.0 0.0 0.00 0.00 0.00 34 1000.3
20260504212129 61 118 2.0 0.0 0.00 0.00 0.00 33 1000.3
20260504211612 61 323 3.0 0.0 0.00 0.00 0.00 34 1000.3
20260504211113 62 212 2.0 0.0 0.00 0.00 0.00 33 1000.0
20260504210612 63 177 10.0 0.0 0.00 0.00 0.00 32 999.7
20260504210114 63 213 3.0 0.0 0.00 0.00 0.00 33 999.7
20260504205611 62 206 3.0 0.0 0.00 0.00 0.00 34 1000.7
20260504205044 62 202 7.0 0.0 0.00 0.00 0.00 35 1000.7
20260504204615 61 183 5.0 0.0 0.00 0.00 0.00 37 1000.7
20260504204041 60 190 7.0 0.0 0.00 0.00 0.00 37 1001.4
20260504203611 60 198 7.0 0.0 0.00 0.00 0.00 37 1001.4
20260504203042 60 188 10.0 0.0 0.00 0.00 0.00 38 1001.7
20260504202540 60 210 3.0 0.0 0.00 0.00 0.00 38 1001.7
20260504202041 59 172 3.0 0.0 0.00 0.00 0.00 39 1002.0
20260504201543 58 179 9.0 0.0 0.00 0.00 0.00 40 1002.4
20260504201118 59 175 6.0 0.0 0.00 0.00 0.00 40 1002.4
20260504200539 59 213 5.0 0.0 0.00 0.00 0.00 41 1002.4
20260504200042 58 243 1.0 0.0 0.00 0.00 0.00 43 1002.4
20260504195616 56 155 1.0 0.0 0.00 0.00 0.00 45 1003.0
20260504195039 56 332 3.0 0.0 0.00 0.00 0.00 44 1003.4
20260504194614 56 360 3.0 0.0 0.00 0.00 0.00 44 1003.7
20260504194041 55 28 1.0 0.0 0.00 0.00 0.00 45 1004.4
20260504193539 55 330 5.0 0.0 0.00 0.00 0.00 44 1004.4
20260504193040 56 262 5.0 0.0 0.00 0.00 0.00 43 1004.1
20260504192538 56 335 3.0 0.0 0.00 0.00 0.00 43 1003.7
20260504192044 56 346 10.0 0.0 0.00 0.00 0.00 42 1003.7
20260504191541 57 339 4.0 0.0 0.00 0.00 0.00 40 1003.7
20260504191044 58 28 7.0 0.0 0.00 0.00 0.00 39 1003.0
20260504190539 59 360 10.0 0.0 0.00 0.00 0.00 37 1002.7
20260504190041 60 292 11.0 0.0 0.00 0.00 0.00 35 1001.7
20260504185540 60 42 6.0 0.0 0.00 0.00 0.00 34 1001.4
20260504185045 60 142 3.0 0.0 0.00 0.00 0.00 33 1001.4
20260504184541 60 175 10.0 0.0 0.00 0.00 0.00 33 1001.4
20260504184038 60 192 2.0 0.0 0.00 0.00 0.00 34 1001.7
20260504183540 59 80 0.0 0.0 0.00 0.00 0.00 33 1002.0
20260504183042 59 315 1.0 0.0 0.00 0.00 0.00 35 1002.0
20260504182539 58 294 5.0 0.0 0.00 0.00 0.00 36 1002.4
20260504182042 59 315 6.0 0.0 0.00 0.00 0.00 34 1002.4
20260504181539 60 333 6.0 0.0 0.00 0.00 0.00 35 1001.7
20260504181040 60 355 11.0 0.0 0.00 0.00 0.00 34 1001.7
20260504180537 61 349 9.0 0.0 0.00 0.00 0.00 33 1001.7
20260504180043 60 332 6.0 0.0 0.00 0.00 0.00 33 1001.4
20260504175538 60 18 3.0 0.0 0.00 0.00 0.00 34 1001.0
20260504175039 61 9 6.0 0.0 0.00 0.00 0.00 34 1001.0
20260504174542 60 28 6.0 0.0 0.00 0.00 0.00 34 1001.4
20260504174044 61 355 7.0 0.0 0.00 0.00 0.00 33 1001.4
20260504173540 61 338 4.0 0.0 0.00 0.00 0.00 34 1001.4
20260504173038 61 78 6.0 0.0 0.00 0.00 0.00 33 1001.4
20260504172539 62 282 10.0 0.0 0.00 0.00 0.00 33 1001.0
20260504172040 62 360 4.0 0.0 0.00 0.00 0.00 32 1001.0
20260504171541 62 336 1.0 0.0 0.00 0.00 0.00 33 1001.4
20260504171040 62 315 1.0 0.0 0.00 0.00 0.00 34 1001.7
20260504170538 61 214 4.0 0.0 0.00 0.00 0.00 33 1001.7
20260504151026 50 18 0.0 0.0 0.00 0.00 0.00 42 1003.4
20260504150524 50 18 0.0 0.0 0.00 0.00 0.00 42 1003.4
20260504141025 46 360 0.0 0.0 0.00 0.00 0.00 45 1004.4
20260504140523 45 350 5.0 0.0 0.00 0.00 0.00 46 1004.1
20260504130623 38 21 5.0 0.0 0.00 0.00 0.00 54 1005.8
20260504130124 38 360 4.0 0.0 0.00 0.00 0.00 55 1005.1
20260504110540 37 16 4.0 0.0 0.00 0.00 0.00 54 1004.7
20260504100543 39 26 4.0 0.0 0.00 0.00 0.00 52 1004.1
20260504081537 40 16 4.0 0.0 0.00 0.00 0.00 53 1004.4
20260504081041 40 18 5.0 0.0 0.00 0.00 0.00 53 1004.4
20260504080537 40 22 6.0 0.0 0.00 0.00 0.00 53 1004.4
20260504050613 48 19 2.0 0.0 0.00 0.00 0.00 46 1003.7
20260504050113 48 19 2.0 0.0 0.00 0.00 0.00 45 1005.1
20260504045615 48 19 1.0 0.0 0.00 0.00 0.00 45 1004.7
20260504045114 49 19 2.0 0.0 0.00 0.00 0.00 45 1004.4
20260504044610 49 344 2.0 0.0 0.00 0.00 0.00 44 1004.4
20260504044113 49 344 1.0 0.0 0.00 0.00 0.00 44 1004.4
20260504043612 50 321 0.0 0.0 0.00 0.00 0.00 43 1004.4
20260504043113 50 360 1.0 0.0 0.00 0.00 0.00 42 1004.4
20260504042613 51 295 0.0 0.0 0.00 0.00 0.00 42 1004.1
20260504042115 51 355 0.0 0.0 0.00 0.00 0.00 42 1003.7
20260504041612 52 360 0.0 0.0 0.00 0.00 0.00 41 1004.1
20260504041116 52 5 1.0 0.0 0.00 0.00 0.00 41 1004.1
20260504040613 52 360 3.0 0.0 0.00 0.00 0.00 40 1003.4
20260504040113 52 320 6.0 0.0 0.00 0.00 0.00 40 1005.4
20260504035613 52 360 2.0 0.0 0.00 0.00 0.00 41 1005.4
20260504035112 52 24 5.0 0.0 0.00 0.00 0.00 40 1005.4
20260504034613 53 5 3.0 0.0 0.00 0.00 0.00 40 1004.7
20260504034113 53 9 3.0 0.0 0.00 0.00 0.00 39 1004.7
20260504033616 53 355 3.0 0.0 0.00 0.00 0.00 39 1004.7
20260504033113 54 355 1.0 0.0 0.00 0.00 0.00 39 1004.7
20260504032611 54 15 2.0 0.0 0.00 0.00 0.00 39 1004.7
20260504032111 54 14 1.0 0.0 0.00 0.00 0.00 38 1004.7
20260504031614 54 15 0.0 0.0 0.00 0.00 0.00 37 1004.4
20260504031113 55 15 1.0 0.0 0.00 0.00 0.00 37 1004.4
20260504030613 55 309 2.0 0.0 0.00 0.00 0.00 36 1004.4
20260504030114 55 303 2.0 0.0 0.00 0.00 0.00 36 1006.4
20260504025613 55 346 1.0 0.0 0.00 0.00 0.00 36 1006.1
20260504025115 56 355 2.0 0.0 0.00 0.00 0.00 36 1005.4
20260504024610 56 290 0.0 0.0 0.00 0.00 0.00 36 1005.4
20260504024114 56 294 3.0 0.0 0.00 0.00 0.00 36 1005.4
20260504023611 56 311 3.0 0.0 0.00 0.00 0.00 35 1005.4
20260504023112 56 350 5.0 0.0 0.00 0.00 0.00 35 1005.4
20260504022613 56 319 3.0 0.0 0.00 0.00 0.00 35 1005.4
20260504022116 57 335 2.0 0.0 0.00 0.00 0.00 35 1005.4
20260504021614 57 5 2.0 0.0 0.00 0.00 0.00 34 1005.4
20260504021112 57 291 4.0 0.0 0.00 0.00 0.00 34 1005.4
20260504020614 58 338 4.0 0.0 0.00 0.00 0.00 34 1004.7
20260504020118 58 319 3.0 0.0 0.00 0.00 0.00 33 1006.4
20260504015618 58 292 6.0 0.0 0.00 0.00 0.00 32 1006.1
20260504015117 59 5 10.0 0.0 0.00 0.00 0.00 32 1006.1
20260504014617 59 290 5.0 0.0 0.00 0.00 0.00 30 1005.8
20260504014116 60 249 4.0 0.0 0.00 0.00 0.00 30 1005.8
20260504013619 60 264 5.0 0.0 0.00 0.00 0.00 30 1005.8
20260504013120 60 248 8.0 0.0 0.00 0.00 0.00 30 1005.8
20260504012617 60 287 2.0 0.0 0.00 0.00 0.00 30 1005.8
20260504012118 60 355 2.0 0.0 0.00 0.00 0.00 29 1005.4
20260504011617 60 331 5.0 0.0 0.00 0.00 0.00 29 1005.4
20260504011117 61 342 4.0 0.0 0.00 0.00 0.00 29 1005.1
20260504010616 61 272 3.0 0.0 0.00 0.00 0.00 28 1005.1
20260504010117 61 302 5.0 0.0 0.00 0.00 0.00 27 1005.8
20260504005617 62 30 8.0 0.0 0.00 0.00 0.00 28 1005.1
20260504005116 62 277 5.0 0.0 0.00 0.00 0.00 27 1005.4
20260504004615 62 11 5.0 0.0 0.00 0.00 0.00 27 1005.4